Weather History for KFSE - October, 2014

Change the Weather History Date:

Saturday, October 4, 2014

  Actual Average Record
Temperature  
Mean Temperature 32 °F -  
Max Temperature 39 °F 61 °F 84 °F (1975)
Min Temperature 26 °F 35 °F 17 °F (1989)
Degree Days  
Heating Degree Days 32    
Moisture  
Dew Point 28 °F    
Average Humidity 78    
Maximum Humidity 93    
Minimum Humidity 61    
Precipitation  
Precipitation 0.00 in - - ()
Sea Level Pressure  
Sea Level Pressure 29.80 in    
Wind  
Wind Speed 15 mph (NW)    
Max Wind Speed 23 mph    
Max Gust Speed 32 mph    
Visibility 10 miles    
Events      
Averages and records for this station are not official NWS values.
T = Trace of Precipitation, MM = Missing Value Source: NWS Daily Summary

Daily Weather History Graph

Daily Weather History Graph

Search for Another Location

Airport or City:

Trip Planner

Search our weather history database for the weather conditions in past years. The results will help you decide how hot, cold, wet, or windy it might be!

Date:

Astronomy

Oct. 04, 2014 Rise Set
Actual Time 7:26 AM CDT 6:56 PM CDT
Civil Twilight 6:55 AM CDT 7:27 PM CDT
Nautical Twilight 6:19 AM CDT 8:02 PM CDT
Astronomical Twilight 5:43 AM CDT 8:38 PM CDT
Moon 4:48 PM CDT (10/4) 2:37 AM CDT (10/4)
Length of Visible Light 12h 31m
Length of Day
11h 30m
Waxing Gibbous, 81% of the Moon is Illuminated
Oct 4
Waxing Gibbous
Oct 8
Full
Oct 15
Last Quarter
Oct 23
New
Oct 30
First Quarter

Hourly Weather History & Observations

Time (CDT) Temp. Windchill Dew Point Humidity Pressure Visibility Wind Dir Wind Speed Gust Speed Precip Events Conditions
12:15 AM 35.6 °F 24.0 °F 30.2 °F 81% 29.86 in 10.0 mi WNW 23.0 mph 31.1 mph N/A   Light Drizzle
12:35 AM 35.6 °F 24.0 °F 30.2 °F 81% 29.86 in 10.0 mi NW 23.0 mph 31.1 mph N/A   Overcast
12:54 AM 35.6 °F 24.5 °F 32.0 °F 87% 29.85 in 10.0 mi NW 20.7 mph 29.9 mph N/A   Overcast
1:15 AM 35.6 °F 25.2 °F 32.0 °F 87% 29.85 in 10.0 mi NW 18.4 mph 26.5 mph N/A   Overcast
1:34 AM 35.6 °F 24.8 °F 32.0 °F 87% 29.85 in 10.0 mi NW 19.6 mph 25.3 mph N/A   Overcast
1:55 AM 35.6 °F 24.8 °F 32.0 °F 87% 29.85 in 10.0 mi NW 19.6 mph 32.2 mph N/A   Overcast
2:15 AM 35.6 °F 25.2 °F 32.0 °F 87% 29.85 in 10.0 mi NW 18.4 mph 25.3 mph N/A   Overcast
2:35 AM 35.6 °F 25.9 °F 32.0 °F 87% 29.85 in 10.0 mi NW 16.1 mph 24.2 mph N/A   Overcast
2:55 AM 35.6 °F 25.2 °F 32.0 °F 87% 29.85 in 10.0 mi NW 18.4 mph 23.0 mph N/A   Overcast
3:15 AM 35.6 °F 26.2 °F 32.0 °F 87% 29.85 in 10.0 mi NW 15.0 mph 24.2 mph N/A   Overcast
3:35 AM 35.6 °F 25.5 °F 32.0 °F 87% 29.85 in 10.0 mi NW 17.3 mph 23.0 mph N/A   Overcast
3:51 AM 35.6 °F 24.2 °F 30.2 °F 81% 29.85 in 10.0 mi NW 21.9 mph 29.9 mph N/A   Overcast
4:15 AM 35.6 °F 25.9 °F 30.2 °F 81% 29.85 in 10.0 mi NW 16.1 mph 26.5 mph N/A   Mostly Cloudy
4:32 AM 33.8 °F 23.9 °F 28.4 °F 81% 29.85 in 10.0 mi NW 15.0 mph 20.7 mph N/A   Mostly Cloudy
4:55 AM 33.8 °F 23.5 °F 28.4 °F 81% 29.85 in 10.0 mi NW 16.1 mph 20.7 mph N/A   Mostly Cloudy
5:15 AM 32.0 °F 22.1 °F 28.4 °F 87% 29.86 in 10.0 mi NW 13.8 mph 18.4 mph N/A   Clear
5:35 AM 30.2 °F 20.2 °F 28.4 °F 93% 29.85 in 10.0 mi NW 12.7 mph 18.4 mph N/A   Clear
5:55 AM 30.2 °F 21.3 °F 28.4 °F 93% 29.86 in 10.0 mi NW 10.4 mph - N/A   Clear
6:15 AM 30.2 °F 21.9 °F 28.4 °F 93% 29.86 in 10.0 mi WNW 9.2 mph - N/A   Clear
6:35 AM 30.2 °F 20.8 °F 28.4 °F 93% 29.86 in 10.0 mi NW 11.5 mph - N/A   Clear
6:55 AM 30.2 °F 21.3 °F 28.4 °F 93% 29.86 in 10.0 mi WNW 10.4 mph - N/A   Clear
7:15 AM 30.2 °F 20.8 °F 28.4 °F 93% 29.86 in 10.0 mi WNW 11.5 mph - N/A   Mostly Cloudy
7:35 AM 30.2 °F 18.9 °F 28.4 °F 93% 29.86 in 10.0 mi NW 16.1 mph 19.6 mph N/A   Overcast
7:55 AM 30.2 °F 21.3 °F 28.4 °F 93% 29.86 in 10.0 mi WNW 10.4 mph 19.6 mph N/A   Overcast
8:15 AM 30.2 °F 20.8 °F 28.4 °F 93% 29.85 in 10.0 mi WNW 11.5 mph 16.1 mph N/A   Mostly Cloudy
8:35 AM 30.2 °F 20.2 °F 28.4 °F 93% 29.86 in 10.0 mi WNW 12.7 mph 17.3 mph N/A   Scattered Clouds
8:55 AM 30.2 °F 21.3 °F 28.4 °F 93% 29.86 in 10.0 mi WNW 10.4 mph 16.1 mph N/A   Scattered Clouds
9:15 AM 33.8 °F 25.8 °F 28.4 °F 81% 29.86 in 10.0 mi WNW 10.4 mph - N/A   Scattered Clouds
9:35 AM 35.6 °F 26.6 °F 28.4 °F 75% 29.85 in 10.0 mi WNW 13.8 mph 19.6 mph N/A   Clear
9:55 AM 35.6 °F 27.5 °F 28.4 °F 75% 29.85 in 10.0 mi WNW 11.5 mph 19.6 mph N/A   Scattered Clouds
10:15 AM 37.4 °F 28.9 °F 28.4 °F 70% 29.85 in 10.0 mi NW 13.8 mph 19.6 mph N/A   Scattered Clouds
10:35 AM 37.4 °F 28.2 °F 28.4 °F 70% 29.85 in 10.0 mi NW 16.1 mph 20.7 mph N/A   Mostly Cloudy
10:55 AM 37.4 °F 29.8 °F 28.4 °F 70% 29.84 in 10.0 mi NW 11.5 mph 21.9 mph N/A   Overcast
11:15 AM 37.4 °F 28.9 °F 28.4 °F 70% 29.84 in 10.0 mi WNW 13.8 mph 21.9 mph N/A   Overcast
11:35 AM 37.4 °F 27.2 °F 28.4 °F 70% 29.84 in 10.0 mi NW 19.6 mph 23.0 mph N/A   Overcast
11:55 AM 37.4 °F 28.5 °F 28.4 °F 70% 29.84 in 10.0 mi NW 15.0 mph 23.0 mph N/A   Overcast
12:15 PM 37.4 °F 28.5 °F 26.6 °F 65% 29.84 in 10.0 mi NW 15.0 mph 25.3 mph N/A   Overcast
12:34 PM 37.4 °F 27.8 °F 26.6 °F 65% 29.84 in 10.0 mi NW 17.3 mph 26.5 mph N/A   Overcast
12:55 PM 37.4 °F 28.2 °F 26.6 °F 65% 29.83 in 10.0 mi WNW 16.1 mph 21.9 mph N/A   Overcast
1:15 PM 37.4 °F 27.8 °F 26.6 °F 65% 29.82 in 10.0 mi WNW 17.3 mph 27.6 mph N/A   Overcast
1:34 PM 37.4 °F 28.2 °F 26.6 °F 65% 29.81 in 10.0 mi NW 16.1 mph 23.0 mph N/A   Overcast
1:55 PM 37.4 °F 28.9 °F 28.4 °F 70% 29.81 in 10.0 mi NW 13.8 mph 21.9 mph N/A   Overcast
2:15 PM 37.4 °F 28.9 °F 26.6 °F 65% 29.80 in 10.0 mi WNW 13.8 mph 20.7 mph N/A   Overcast
2:34 PM 37.4 °F 27.2 °F 26.6 °F 65% 29.80 in 10.0 mi WNW 19.6 mph 26.5 mph N/A   Overcast
2:55 PM 39.2 °F 30.2 °F 26.6 °F 61% 29.79 in 10.0 mi WNW 17.3 mph 23.0 mph N/A   Overcast
3:15 PM 39.2 °F 30.8 °F 26.6 °F 61% 29.79 in 10.0 mi WNW 15.0 mph 23.0 mph N/A   Overcast
3:34 PM 39.2 °F 30.8 °F 26.6 °F 61% 29.79 in 10.0 mi West 15.0 mph 23.0 mph N/A   Overcast
3:55 PM 39.2 °F 30.8 °F 26.6 °F 61% 29.78 in 10.0 mi WNW 15.0 mph 20.7 mph N/A   Overcast
4:15 PM 39.2 °F 31.6 °F 26.6 °F 61% 29.77 in 10.0 mi WNW 12.7 mph - N/A   Overcast
4:35 PM 39.2 °F 30.5 °F 26.6 °F 61% 29.77 in 10.0 mi WNW 16.1 mph 23.0 mph N/A   Overcast
4:55 PM 39.2 °F 31.2 °F 26.6 °F 61% 29.77 in 10.0 mi WNW 13.8 mph 20.7 mph N/A   Overcast
5:15 PM 37.4 °F 29.8 °F 26.6 °F 65% 29.76 in 10.0 mi NW 11.5 mph - N/A   Overcast
5:35 PM 37.4 °F 29.3 °F 26.6 °F 65% 29.76 in 10.0 mi WNW 12.7 mph 19.6 mph N/A   Overcast
5:55 PM 37.4 °F 30.8 °F 26.6 °F 65% 29.75 in 10.0 mi NW 9.2 mph - N/A   Overcast
6:15 PM 37.4 °F 29.8 °F 26.6 °F 65% 29.75 in 10.0 mi WNW 11.5 mph 18.4 mph N/A   Overcast
6:35 PM 37.4 °F 28.2 °F 26.6 °F 65% 29.75 in 10.0 mi West 16.1 mph 19.6 mph N/A   Overcast
6:55 PM 37.4 °F 28.9 °F 26.6 °F 65% 29.75 in 10.0 mi WNW 13.8 mph 18.4 mph N/A   Overcast
7:15 PM 37.4 °F 30.8 °F 26.6 °F 65% 29.74 in 10.0 mi WNW 9.2 mph - N/A   Overcast
7:35 PM 35.6 °F 28.0 °F 26.6 °F 70% 29.74 in 10.0 mi West 10.4 mph - N/A   Mostly Cloudy
7:55 PM 35.6 °F 29.9 °F 26.6 °F 70% 29.73 in 10.0 mi West 6.9 mph - N/A   Scattered Clouds
8:14 PM 33.8 °F 28.6 °F 26.6 °F 75% 29.72 in 10.0 mi West 5.8 mph - N/A   Clear
8:35 PM 30.2 °F - 24.8 °F 80% 29.72 in 10.0 mi Calm Calm - N/A   Clear
8:55 PM 30.2 °F - 24.8 °F 80% 29.72 in 10.0 mi Calm Calm - N/A   Clear
9:15 PM 30.2 °F - 24.8 °F 80% 29.71 in 10.0 mi Calm Calm - N/A   Clear
9:35 PM 28.4 °F - 24.8 °F 86% 29.71 in 10.0 mi Calm Calm - N/A   Clear
9:55 PM 28.4 °F - 24.8 °F 86% 29.70 in 10.0 mi Calm Calm - N/A   Clear
10:15 PM 30.2 °F - 24.8 °F 80% 29.70 in 10.0 mi Calm Calm - N/A   Clear
10:35 PM 28.4 °F - 24.8 °F 86% 29.69 in 10.0 mi Calm Calm - N/A   Clear
10:55 PM 28.4 °F - 24.8 °F 86% 29.68 in 10.0 mi Calm Calm - N/A   Clear
11:15 PM 28.4 °F - 24.8 °F 86% 29.67 in 10.0 mi Calm Calm - N/A   Clear
11:35 PM 26.6 °F - 24.8 °F 93% 29.67 in 10.0 mi Calm Calm - N/A   Clear
11:55 PM 26.6 °F - 23.0 °F 86% 29.66 in 10.0 mi Calm Calm - N/A   Clear